When you browse on this site, cookies collect data to enhance your experience and personalize the content and advertising you see.
Visit our Privacy Policy to learn more. By continuing to use the site, you agree to this use of cookies and data.
  • In Latvia
  • List of Countries
  • For 7 days
  • Water Temperature
  • Weather Map
  • Weather Widgets
  • user-avatar
    Login

    Hourly Weather Molodycz

    Today, 6 April, Monday

    Time Temperature Precipitation Wind Pressure Humidity
    00:00 +4°C° 0 mm 3 mps 757 mmHg 57%
    01:00 +3°C° 0 mm 3 mps 757 mmHg 58%
    02:00 +3°C° 0 mm 3 mps 757 mmHg 59%
    03:00 +3°C° 0 mm 3 mps 757 mmHg 59%
    04:00 +1°C° 0 mm 4 mps 757 mmHg 59%
    05:00 +1°C° 0 mm 4 mps 757 mmHg 60%
    06:00 +3°C° 0 mm 4 mps 757 mmHg 59%
    07:00 +4°C° 0 mm 4 mps 757 mmHg 57%
    08:00 +5°C° 0 mm 5 mps 757 mmHg 56%
    09:00 +7°C° 0 mm 4 mps 758 mmHg 52%
    10:00 +10°C° 0 mm 4 mps 758 mmHg 48%
    11:00 +12°C° 0 mm 4 mps 758 mmHg 44%
    12:00 +13°C° 0 mm 3 mps 757 mmHg 41%
    13:00 +14°C° 0 mm 3 mps 757 mmHg 38%
    14:00 +17°C° 0 mm 3 mps 757 mmHg 36%
    15:00 +17°C° 0 mm 3 mps 757 mmHg 36%
    16:00 +17°C° 0 mm 2 mps 756 mmHg 37%
    17:00 +17°C° 0 mm 2 mps 756 mmHg 37%
    18:00 +15°C° 0 mm 2 mps 756 mmHg 43%
    19:00 +13°C° 0 mm 2 mps 756 mmHg 49%
    20:00 +10°C° 0 mm 2 mps 756 mmHg 55%
    21:00 +9°C° 0 mm 2 mps 757 mmHg 56%
    22:00 +8°C° 0 mm 2 mps 757 mmHg 56%
    23:00 +7°C° 0 mm 2 mps 757 mmHg 57%

    Tomorrow, 7 April, Tuesday

    Time Temperature Precipitation Wind Pressure Humidity
    00:00 +7°C° 0 mm 2 mps 757 mmHg 58%
    01:00 +6°C° 0 mm 2 mps 757 mmHg 59%
    02:00 +6°C° 0 mm 2 mps 757 mmHg 59%
    03:00 +6°C° 0 mm 2 mps 757 mmHg 60%
    04:00 +5°C° 0 mm 2 mps 757 mmHg 60%
    05:00 +5°C° 0 mm 2 mps 757 mmHg 60%
    06:00 +6°C° 0 mm 2 mps 757 mmHg 59%
    07:00 +7°C° 0 mm 2 mps 758 mmHg 57%
    08:00 +8°C° 0 mm 2 mps 758 mmHg 56%
    09:00 +10°C° 0 mm 2 mps 758 mmHg 52%
    10:00 +13°C° 0 mm 2 mps 758 mmHg 48%
    11:00 +15°C° 0 mm 2 mps 758 mmHg 45%
    12:00 +16°C° 0 mm 2 mps 757 mmHg 42%
    13:00 +17°C° 0 mm 2 mps 757 mmHg 40%
    14:00 +18°C° 0 mm 2 mps 757 mmHg 38%
    15:00 +18°C° 0 mm 2 mps 757 mmHg 38%
    16:00 +18°C° 0 mm 2 mps 756 mmHg 39%
    17:00 +18°C° 0 mm 2 mps 756 mmHg 40%
    18:00 +16°C° 0 mm 1 mps 756 mmHg 45%
    19:00 +14°C° 0 mm 1 mps 756 mmHg 50%
    20:00 +11°C° 0 mm 0 mps 756 mmHg 55%
    21:00 +12°C° 0 mm 1 mps 756 mmHg 56%
    22:00 +11°C° 0 mm 1 mps 756 mmHg 57%
    23:00 +10°C° 0 mm 1 mps 756 mmHg 58%

    Day after tomorrow, 8 April, Wednesday

    Time Temperature Precipitation Wind Pressure Humidity
    00:00 +10°C° 0 mm 1 mps 756 mmHg 60%
    01:00 +9°C° 0 mm 1 mps 756 mmHg 62%
    02:00 +9°C° 0 mm 1 mps 756 mmHg 65%
    03:00 +8°C° 0 mm 1 mps 756 mmHg 65%
    04:00 +8°C° 0 mm 1 mps 756 mmHg 66%
    05:00 +7°C° 0 mm 1 mps 756 mmHg 67%
    06:00 +7°C° 0 mm 2 mps 756 mmHg 64%
    07:00 +8°C° 0 mm 2 mps 756 mmHg 60%
    08:00 +9°C° 0 mm 2 mps 755 mmHg 56%
    09:00 +12°C° 0 mm 2 mps 755 mmHg 50%
    10:00 +14°C° 0 mm 2 mps 755 mmHg 44%
    11:00 +16°C° 0 mm 2 mps 755 mmHg 38%
    12:00 +17°C° 0 mm 2 mps 755 mmHg 37%
    13:00 +18°C° 0 mm 2 mps 754 mmHg 35%
    14:00 +19°C° 0 mm 2 mps 754 mmHg 33%
    15:00 +20°C° 0 mm 1 mps 753 mmHg 33%
    16:00 +20°C° 0 mm 1 mps 753 mmHg 33%
    17:00 +20°C° 0 mm 1 mps 752 mmHg 34%
    18:00 +18°C° 0 mm 1 mps 752 mmHg 38%
    19:00 +15°C° 0 mm 1 mps 752 mmHg 42%
    20:00 +13°C° 0 mm 1 mps 751 mmHg 46%
    21:00 +13°C° 0 mm 1 mps 751 mmHg 48%
    22:00 +12°C° 0 mm 1 mps 751 mmHg 50%
    23:00 +11°C° 0 mm 1 mps 751 mmHg 52%

    9 April, Thursday

    Time Temperature Precipitation Wind Pressure Humidity
    00:00 +11°C° 0 mm 1 mps 751 mmHg 54%
    01:00 +10°C° 0 mm 1 mps 750 mmHg 56%
    02:00 +10°C° 0 mm 1 mps 750 mmHg 59%
    03:00 +9°C° 0 mm 1 mps 750 mmHg 60%
    04:00 +9°C° 0 mm 1 mps 750 mmHg 62%
    05:00 +8°C° 0 mm 1 mps 750 mmHg 64%
    06:00 +10°C° 0 mm 1 mps 749 mmHg 62%
    07:00 +11°C° 0 mm 1 mps 749 mmHg 61%
    08:00 +12°C° 0 mm 2 mps 749 mmHg 59%
    09:00 +13°C° 0 mm 2 mps 749 mmHg 54%
    10:00 +14°C° 0 mm 3 mps 749 mmHg 49%
    11:00 +17°C° 0 mm 3 mps 748 mmHg 44%
    12:00 +18°C° 0 mm 3 mps 748 mmHg 42%
    13:00 +19°C° 0 mm 4 mps 747 mmHg 40%
    14:00 +20°C° 0 mm 4 mps 747 mmHg 38%
    15:00 +20°C° 0 mm 4 mps 747 mmHg 38%
    16:00 +19°C° 0 mm 4 mps 746 mmHg 39%
    17:00 +19°C° 0 mm 4 mps 746 mmHg 39%
    18:00 +17°C° 0 mm 4 mps 746 mmHg 44%
    19:00 +14°C° 0 mm 3 mps 746 mmHg 49%
    20:00 +14°C° 0 mm 2 mps 746 mmHg 54%
    21:00 +12°C° 0 mm 3 mps 746 mmHg 59%
    22:00 +11°C° 0 mm 3 mps 746 mmHg 64%
    23:00 +11°C° 0 mm 4 mps 746 mmHg 69%

    10 April, Friday

    Time Temperature Precipitation Wind Pressure Humidity
    00:00 +11°C° 0.7 mm 3 mps 746 mmHg 77%
    01:00 +10°C° 0.7 mm 3 mps 746 mmHg 85%
    02:00 +10°C° 0.7 mm 2 mps 746 mmHg 93%
    03:00 +10°C° 0.4 mm 3 mps 746 mmHg 92%
    04:00 +10°C° 0.4 mm 3 mps 746 mmHg 91%
    05:00 +10°C° 0.4 mm 4 mps 747 mmHg 90%
    06:00 +10°C° 0.2 mm 4 mps 747 mmHg 85%
    07:00 +9°C° 0.2 mm 5 mps 747 mmHg 81%
    08:00 +9°C° 0.2 mm 6 mps 748 mmHg 77%
    09:00 +9°C° 0 mm 6 mps 748 mmHg 68%
    10:00 +9°C° 0 mm 6 mps 749 mmHg 59%
    11:00 +10°C° 0 mm 5 mps 749 mmHg 50%
    12:00 +12°C° 0 mm 5 mps 749 mmHg 48%
    13:00 +12°C° 0 mm 5 mps 749 mmHg 45%
    14:00 +13°C° 0 mm 4 mps 749 mmHg 42%
    15:00 +13°C° 0 mm 4 mps 749 mmHg 43%
    16:00 +13°C° 0 mm 4 mps 749 mmHg 43%
    17:00 +13°C° 0 mm 4 mps 749 mmHg 44%
    18:00 +11°C° 0 mm 3 mps 749 mmHg 49%
    19:00 +10°C° 0 mm 2 mps 749 mmHg 53%
    20:00 +8°C° 0 mm 2 mps 749 mmHg 58%
    21:00 +9°C° 0 mm 1 mps 749 mmHg 60%
    22:00 +9°C° 0 mm 1 mps 749 mmHg 61%
    23:00 +7°C° 0 mm 0 mps 749 mmHg 63%

    11 April, Saturday

    Time Temperature Precipitation Wind Pressure Humidity
    00:00 +7°C° 0 mm 0 mps 749 mmHg 64%
    01:00 +6°C° 0 mm 0 mps 749 mmHg 66%
    02:00 +6°C° 0 mm 0 mps 749 mmHg 68%
    03:00 +5°C° 0 mm 0 mps 749 mmHg 70%
    04:00 +5°C° 0 mm 0 mps 749 mmHg 72%
    05:00 +4°C° 0 mm 0 mps 749 mmHg 74%
    06:00 +7°C° 0 mm 1 mps 749 mmHg 71%
    07:00 +8°C° 0 mm 1 mps 750 mmHg 68%
    08:00 +9°C° 0 mm 1 mps 750 mmHg 65%
    09:00 +10°C° 0 mm 1 mps 750 mmHg 59%
    10:00 +12°C° 0 mm 1 mps 750 mmHg 53%
    11:00 +13°C° 0 mm 1 mps 750 mmHg 48%
    12:00 +14°C° 0 mm 1 mps 750 mmHg 45%
    13:00 +14°C° 0 mm 1 mps 749 mmHg 42%
    14:00 +15°C° 0 mm 1 mps 749 mmHg 39%
    15:00 +15°C° 0 mm 1 mps 749 mmHg 40%
    16:00 +15°C° 0 mm 1 mps 748 mmHg 40%
    17:00 +14°C° 0 mm 1 mps 748 mmHg 40%
    18:00 +13°C° 0 mm 2 mps 748 mmHg 46%
    19:00 +10°C° 0 mm 2 mps 748 mmHg 51%
    20:00 +9°C° 0 mm 2 mps 748 mmHg 57%
    21:00 +8°C° 0 mm 2 mps 748 mmHg 59%
    22:00 +7°C° 0 mm 2 mps 748 mmHg 60%
    23:00 +7°C° 0 mm 3 mps 748 mmHg 62%
    Show more